Вернуться в каталог

RITE TARGET 2

АктивенВоенныеSSO
NORAD 28455·PAYLOAD·🇯🇵 Japan

Запущен Dec 14, 2002 с Tanegashima Space Center

Loading…

Ближайшие Пролёты (ближайшие 24 часа)

TLE

СвежийSource: Space-Track

Эпоха: Sep 12, 2026, 04:01 UTC

1 28455U 02056G   26255.16771320  .00000449  00000-0  16537-3 0  9996
2 28455  98.7651 233.7694 0009073 318.1467  41.9025 14.37453900687485

Отслеживайте RITE TARGET 2 в реальном времени с AllMySat

Download on the App Store